{"data":{"norad_id":57248,"epoch":"2026-05-24T22:20:39.675264Z","epoch_age_seconds":95196,"freshness":"FRESH","line1":"1 57248U 23094AG  26144.93101476  .00000149  00000+0  14959-4 0  9997","line2":"2 57248  43.0024 309.0111 0001595 270.7088  89.3580 15.27573010158905","mean_motion":15.2757301,"eccentricity":0.0001595,"inclination_deg":43.0024,"raan_deg":309.0111,"arg_perigee_deg":270.7088,"mean_anomaly_deg":89.358,"bstar":1.4959e-5,"rev_number":15890,"period_min":94.26718006755,"perigee_km":481.97566417335,"apogee_km":484.16438921486,"semimajor_km":6861.2070266941,"source":"CELESTRAK","updated_at":"2026-05-25T13:38:18.258373Z"}}